{"data":{"norad_id":64243,"intl_designator":"2025-119L","name":"STARLINK-11694 [DTC]","alt_names":[],"object_type":"PAYLOAD","status":"ACTIVE","operator":null,"country":"US","launch_date":"2025-06-03","launch_site_code":"AFETR","launch_vehicle":null,"mission":null,"orbit_class":"UNKNOWN","rcs_meters":null,"size_class":null,"mass_kg":null,"dimensions":null,"purposes":["comms"],"wikipedia_slug":null,"has_3d_model":false,"image_url":null,"decayed_at":null,"tle_current":{"epoch":"2026-09-20T22:00:03.000096Z","epoch_age_seconds":101559,"freshness":"FRESH","line1":"1 64243U 25119L   26263.91670139  .00601008  18154-3  78420-3 0  9993","line2":"2 64243  42.9810 100.8577 0018055 282.2240 138.4263 16.05786363  6033","mean_motion":16.05786363,"eccentricity":0.0018055,"inclination_deg":42.981,"raan_deg":100.8577,"arg_perigee_deg":282.224,"mean_anomaly_deg":138.4263,"bstar":0.0007842,"rev_number":603,"period_min":89.675689941078,"perigee_km":246.44535755305,"apogee_km":270.40999259474,"semimajor_km":6636.5646750739,"source":"CELESTRAK","updated_at":"2026-09-21T09:00:35.278287Z"}}}